owner,sensor,date,latitude,longitude,vertical_datum,sea_water_practical_salinity,qcFlag 
ENP,ioos.station.NOAA.NDBC:GBIF1:1,2014-12-01T00:00:00Z,25.3780,-81.0290,1.5,7.27,1111122 
ENP,ioos.station.NOAA.NDBC:GBIF1:1,2014-12-01T01:00:00Z,25.3780,-81.0290,1.5,10.94,1111122 
ENP,ioos.station.NOAA.NDBC:GBIF1:1,2014-12-01T02:00:00Z,25.3780,-81.0290,1.5,14.4,1111122 
ENP,ioos.station.NOAA.NDBC:GBIF1:1,2014-12-01T03:00:00Z,25.3780,-81.0290,1.5,16.94,1111122 
ENP,ioos.station.NOAA.NDBC:GBIF1:1,2014-12-01T04:00:00Z,25.3780,-81.0290,1.5,18.42,1111122 
ENP,ioos.station.NOAA.NDBC:GBIF1:1,2014-12-01T05:00:00Z,25.3780,-81.0290,1.5,18.83,1111122 
ENP,ioos.station.NOAA.NDBC:GBIF1:1,2014-12-01T06:00:00Z,25.3780,-81.0290,1.5,17.54,1111122 
ENP,ioos.station.NOAA.NDBC:GBIF1:1,2014-12-01T08:00:00Z,25.3780,-81.0290,1.5,13.94,1111122 
ENP,ioos.station.NOAA.NDBC:GBIF1:1,2014-12-01T09:00:00Z,25.3780,-81.0290,1.5,11.52,1111122 
ENP,ioos.station.NOAA.NDBC:GBIF1:1,2014-12-01T10:00:00Z,25.3780,-81.0290,1.5,9.72,1111122 
ENP,ioos.station.NOAA.NDBC:GBIF1:1,2014-12-01T16:00:00Z,25.3780,-81.0290,1.5,16.33,1111122 
ENP,ioos.station.NOAA.NDBC:GBIF1:1,2014-12-01T18:00:00Z,25.3780,-81.0290,1.5,15.6,1111122 
ENP,ioos.station.NOAA.NDBC:GBIF1:1,2014-12-01T19:00:00Z,25.3780,-81.0290,1.5,13.61,1111122 
ENP,ioos.station.NOAA.NDBC:GBIF1:1,2014-12-01T20:00:00Z,25.3780,-81.0290,1.5,11.13,1111122 
ENP,ioos.station.NOAA.NDBC:GBIF1:1,2014-12-01T21:00:00Z,25.3780,-81.0290,1.5,9.15,1111122 
ENP,ioos.station.NOAA.NDBC:GBIF1:1,2014-12-01T22:00:00Z,25.3780,-81.0290,1.5,7.54,1111122 
ENP,ioos.station.NOAA.NDBC:GBIF1:1,2014-12-01T23:00:00Z,25.3780,-81.0290,1.5,5.51,1111122 
ENP,ioos.station.NOAA.NDBC:GBIF1:1,2014-12-02T00:00:00Z,25.3780,-81.0290,1.5,5.52,1111122 
ENP,ioos.station.NOAA.NDBC:GBIF1:1,2014-12-02T01:00:00Z,25.3780,-81.0290,1.5,9.08,1111122 
ENP,ioos.station.NOAA.NDBC:GBIF1:1,2014-12-02T02:00:00Z,25.3780,-81.0290,1.5,12.3,1111122 
ENP,ioos.station.NOAA.NDBC:GBIF1:1,2014-12-02T03:00:00Z,25.3780,-81.0290,1.5,16.0,1111122 
ENP,ioos.station.NOAA.NDBC:GBIF1:1,2014-12-02T05:00:00Z,25.3780,-81.0290,1.5,19.93,1111122 
ENP,ioos.station.NOAA.NDBC:GBIF1:1,2014-12-02T06:00:00Z,25.3780,-81.0290,1.5,20.41,1111122 
ENP,ioos.station.NOAA.NDBC:GBIF1:1,2014-12-02T07:00:00Z,25.3780,-81.0290,1.5,19.11,1111122 
ENP,ioos.station.NOAA.NDBC:GBIF1:1,2014-12-02T09:00:00Z,25.3780,-81.0290,1.5,15.73,1111122 
ENP,ioos.station.NOAA.NDBC:GBIF1:1,2014-12-02T10:00:00Z,25.3780,-81.0290,1.5,12.82,1111122 
ENP,ioos.station.NOAA.NDBC:GBIF1:1,2014-12-02T11:00:00Z,25.3780,-81.0290,1.5,10.55,1111122 
ENP,ioos.station.NOAA.NDBC:GBIF1:1,2014-12-02T12:00:00Z,25.3780,-81.0290,1.5,9.08,1111122 
ENP,ioos.station.NOAA.NDBC:GBIF1:1,2014-12-02T13:00:00Z,25.3780,-81.0290,1.5,7.95,1111122 
ENP,ioos.station.NOAA.NDBC:GBIF1:1,2014-12-02T14:00:00Z,25.3780,-81.0290,1.5,9.65,1111122 
ENP,ioos.station.NOAA.NDBC:GBIF1:1,2014-12-02T15:00:00Z,25.3780,-81.0290,1.5,13.47,1111122 
ENP,ioos.station.NOAA.NDBC:GBIF1:1,2014-12-02T16:00:00Z,25.3780,-81.0290,1.5,16.53,1111122 
ENP,ioos.station.NOAA.NDBC:GBIF1:1,2014-12-02T17:00:00Z,25.3780,-81.0290,1.5,19.04,1111122 
ENP,ioos.station.NOAA.NDBC:GBIF1:1,2014-12-02T18:00:00Z,25.3780,-81.0290,1.5,20.41,1111122 
ENP,ioos.station.NOAA.NDBC:GBIF1:1,2014-12-02T19:00:00Z,25.3780,-81.0290,1.5,20.75,1111122 
ENP,ioos.station.NOAA.NDBC:GBIF1:1,2014-12-02T21:00:00Z,25.3780,-81.0290,1.5,17.48,1111122 
ENP,ioos.station.NOAA.NDBC:GBIF1:1,2014-12-02T22:00:00Z,25.3780,-81.0290,1.5,15.86,1111122 
ENP,ioos.station.NOAA.NDBC:GBIF1:1,2014-12-02T23:00:00Z,25.3780,-81.0290,1.5,13.34,1111122 
ENP,ioos.station.NOAA.NDBC:GBIF1:1,2014-12-03T00:00:00Z,25.3780,-81.0290,1.5,12.43,1111122 
ENP,ioos.station.NOAA.NDBC:GBIF1:1,2014-12-03T01:00:00Z,25.3780,-81.0290,1.5,13.02,1111122 
ENP,ioos.station.NOAA.NDBC:GBIF1:1,2014-12-03T02:00:00Z,25.3780,-81.0290,1.5,15.93,1111122 
ENP,ioos.station.NOAA.NDBC:GBIF1:1,2014-12-03T03:00:00Z,25.3780,-81.0290,1.5,18.09,1111122 
ENP,ioos.station.NOAA.NDBC:GBIF1:1,2014-12-03T04:00:00Z,25.3780,-81.0290,1.5,20.06,1111122 
ENP,ioos.station.NOAA.NDBC:GBIF1:1,2014-12-03T05:00:00Z,25.3780,-81.0290,1.5,21.86,1111122 
ENP,ioos.station.NOAA.NDBC:GBIF1:1,2014-12-03T06:00:00Z,25.3780,-81.0290,1.5,22.9,1111122 
ENP,ioos.station.NOAA.NDBC:GBIF1:1,2014-12-03T07:00:00Z,25.3780,-81.0290,1.5,23.11,1111122 
ENP,ioos.station.NOAA.NDBC:GBIF1:1,2014-12-03T08:00:00Z,25.3780,-81.0290,1.5,20.96,1111122 
ENP,ioos.station.NOAA.NDBC:GBIF1:1,2014-12-03T09:00:00Z,25.3780,-81.0290,1.5,19.65,1111122 
ENP,ioos.station.NOAA.NDBC:GBIF1:1,2014-12-03T10:00:00Z,25.3780,-81.0290,1.5,18.83,1111122 
ENP,ioos.station.NOAA.NDBC:GBIF1:1,2014-12-03T11:00:00Z,25.3780,-81.0290,1.5,16.6,1111122 
ENP,ioos.station.NOAA.NDBC:GBIF1:1,2014-12-03T12:00:00Z,25.3780,-81.0290,1.5,13.94,1111122 
ENP,ioos.station.NOAA.NDBC:GBIF1:1,2014-12-03T13:00:00Z,25.3780,-81.0290,1.5,12.82,1111122 
ENP,ioos.station.NOAA.NDBC:GBIF1:1,2014-12-03T15:00:00Z,25.3780,-81.0290,1.5,12.23,1111122 
ENP,ioos.station.NOAA.NDBC:GBIF1:1,2014-12-03T16:00:00Z,25.3780,-81.0290,1.5,15.46,1111122 
ENP,ioos.station.NOAA.NDBC:GBIF1:1,2014-12-03T17:00:00Z,25.3780,-81.0290,1.5,18.36,1111122 
ENP,ioos.station.NOAA.NDBC:GBIF1:1,2014-12-03T18:00:00Z,25.3780,-81.0290,1.5,20.54,1111122 
ENP,ioos.station.NOAA.NDBC:GBIF1:1,2014-12-03T19:00:00Z,25.3780,-81.0290,1.5,21.99,1111122 
ENP,ioos.station.NOAA.NDBC:GBIF1:1,2014-12-03T20:00:00Z,25.3780,-81.0290,1.5,22.06,1111122 
ENP,ioos.station.NOAA.NDBC:GBIF1:1,2014-12-03T21:00:00Z,25.3780,-81.0290,1.5,20.48,1111122 
ENP,ioos.station.NOAA.NDBC:GBIF1:1,2014-12-03T22:00:00Z,25.3780,-81.0290,1.5,18.42,1111122 
ENP,ioos.station.NOAA.NDBC:GBIF1:1,2014-12-03T23:00:00Z,25.3780,-81.0290,1.5,16.8,1111122 
ENP,ioos.station.NOAA.NDBC:GBIF1:1,2014-12-04T00:00:00Z,25.3780,-81.0290,1.5,14.53,1111122 
ENP,ioos.station.NOAA.NDBC:GBIF1:1,2014-12-04T01:00:00Z,25.3780,-81.0290,1.5,13.28,1111122 
ENP,ioos.station.NOAA.NDBC:GBIF1:1,2014-12-04T02:00:00Z,25.3780,-81.0290,1.5,13.47,1111122 
ENP,ioos.station.NOAA.NDBC:GBIF1:1,2014-12-04T03:00:00Z,25.3780,-81.0290,1.5,16.4,1111122 
ENP,ioos.station.NOAA.NDBC:GBIF1:1,2014-12-04T04:00:00Z,25.3780,-81.0290,1.5,19.11,1111122 
ENP,ioos.station.NOAA.NDBC:GBIF1:1,2014-12-04T05:00:00Z,25.3780,-81.0290,1.5,21.72,1111122 
ENP,ioos.station.NOAA.NDBC:GBIF1:1,2014-12-04T06:00:00Z,25.3780,-81.0290,1.5,23.46,1111122 
ENP,ioos.station.NOAA.NDBC:GBIF1:1,2014-12-04T07:00:00Z,25.3780,-81.0290,1.5,24.23,1111122 
ENP,ioos.station.NOAA.NDBC:GBIF1:1,2014-12-04T09:00:00Z,25.3780,-81.0290,1.5,21.99,1111122 
ENP,ioos.station.NOAA.NDBC:GBIF1:1,2014-12-04T10:00:00Z,25.3780,-81.0290,1.5,20.27,1111122 
ENP,ioos.station.NOAA.NDBC:GBIF1:1,2014-12-04T11:00:00Z,25.3780,-81.0290,1.5,19.38,1111122 
ENP,ioos.station.NOAA.NDBC:GBIF1:1,2014-12-04T12:00:00Z,25.3780,-81.0290,1.5,17.54,1111122 
ENP,ioos.station.NOAA.NDBC:GBIF1:1,2014-12-04T13:00:00Z,25.3780,-81.0290,1.5,15.4,1111122 
ENP,ioos.station.NOAA.NDBC:GBIF1:1,2014-12-04T14:00:00Z,25.3780,-81.0290,1.5,14.66,1111122 
ENP,ioos.station.NOAA.NDBC:GBIF1:1,2014-12-04T15:00:00Z,25.3780,-81.0290,1.5,12.23,1111122 
ENP,ioos.station.NOAA.NDBC:GBIF1:1,2014-12-04T16:00:00Z,25.3780,-81.0290,1.5,12.62,1111122 
ENP,ioos.station.NOAA.NDBC:GBIF1:1,2014-12-04T17:00:00Z,25.3780,-81.0290,1.5,16.13,1111122 
ENP,ioos.station.NOAA.NDBC:GBIF1:1,2014-12-04T18:00:00Z,25.3780,-81.0290,1.5,19.24,1111122 
ENP,ioos.station.NOAA.NDBC:GBIF1:1,2014-12-04T19:00:00Z,25.3780,-81.0290,1.5,21.51,1111122 
ENP,ioos.station.NOAA.NDBC:GBIF1:1,2014-12-04T21:00:00Z,25.3780,-81.0290,1.5,21.99,1111122 
ENP,ioos.station.NOAA.NDBC:GBIF1:1,2014-12-04T22:00:00Z,25.3780,-81.0290,1.5,20.68,1111122 
ENP,ioos.station.NOAA.NDBC:GBIF1:1,2014-12-04T23:00:00Z,25.3780,-81.0290,1.5,18.56,1111122 
ENP,ioos.station.NOAA.NDBC:GBIF1:1,2014-12-05T00:00:00Z,25.3780,-81.0290,1.5,16.13,1111122 
ENP,ioos.station.NOAA.NDBC:GBIF1:1,2014-12-05T01:00:00Z,25.3780,-81.0290,1.5,14.66,1111122 
ENP,ioos.station.NOAA.NDBC:GBIF1:1,2014-12-05T02:00:00Z,25.3780,-81.0290,1.5,12.75,1111122 
ENP,ioos.station.NOAA.NDBC:GBIF1:1,2014-12-05T03:00:00Z,25.3780,-81.0290,1.5,13.28,1111122 
ENP,ioos.station.NOAA.NDBC:GBIF1:1,2014-12-05T05:00:00Z,25.3780,-81.0290,1.5,19.72,1111122 
ENP,ioos.station.NOAA.NDBC:GBIF1:1,2014-12-05T06:00:00Z,25.3780,-81.0290,1.5,22.55,1111122 
ENP,ioos.station.NOAA.NDBC:GBIF1:1,2014-12-05T07:00:00Z,25.3780,-81.0290,1.5,24.23,1111122 
ENP,ioos.station.NOAA.NDBC:GBIF1:1,2014-12-05T08:00:00Z,25.3780,-81.0290,1.5,24.79,1111122 
ENP,ioos.station.NOAA.NDBC:GBIF1:1,2014-12-05T09:00:00Z,25.3780,-81.0290,1.5,23.11,1111122 
ENP,ioos.station.NOAA.NDBC:GBIF1:1,2014-12-05T10:00:00Z,25.3780,-81.0290,1.5,22.13,1111122 
ENP,ioos.station.NOAA.NDBC:GBIF1:1,2014-12-05T11:00:00Z,25.3780,-81.0290,1.5,20.41,1111122 
ENP,ioos.station.NOAA.NDBC:GBIF1:1,2014-12-05T12:00:00Z,25.3780,-81.0290,1.5,18.97,1111122 
ENP,ioos.station.NOAA.NDBC:GBIF1:1,2014-12-05T13:00:00Z,25.3780,-81.0290,1.5,17.07,1111122 
ENP,ioos.station.NOAA.NDBC:GBIF1:1,2014-12-05T14:00:00Z,25.3780,-81.0290,1.5,16.0,1111122 
ENP,ioos.station.NOAA.NDBC:GBIF1:1,2014-12-05T15:00:00Z,25.3780,-81.0290,1.5,13.87,1111122 
ENP,ioos.station.NOAA.NDBC:GBIF1:1,2014-12-05T16:00:00Z,25.3780,-81.0290,1.5,12.1,1111122 
ENP,ioos.station.NOAA.NDBC:GBIF1:1,2014-12-05T17:00:00Z,25.3780,-81.0290,1.5,13.21,1111122 
ENP,ioos.station.NOAA.NDBC:GBIF1:1,2014-12-05T18:00:00Z,25.3780,-81.0290,1.5,17.21,1111122 
ENP,ioos.station.NOAA.NDBC:GBIF1:1,2014-12-05T19:00:00Z,25.3780,-81.0290,1.5,20.34,1111122 
ENP,ioos.station.NOAA.NDBC:GBIF1:1,2014-12-05T20:00:00Z,25.3780,-81.0290,1.5,22.76,1111122 
ENP,ioos.station.NOAA.NDBC:GBIF1:1,2014-12-05T21:00:00Z,25.3780,-81.0290,1.5,24.02,1111122 
ENP,ioos.station.NOAA.NDBC:GBIF1:1,2014-12-05T22:00:00Z,25.3780,-81.0290,1.5,23.32,1111122 
ENP,ioos.station.NOAA.NDBC:GBIF1:1,2014-12-05T23:00:00Z,25.3780,-81.0290,1.5,21.72,1111122 
ENP,ioos.station.NOAA.NDBC:GBIF1:1,2014-12-06T00:00:00Z,25.3780,-81.0290,1.5,19.93,1111122 
ENP,ioos.station.NOAA.NDBC:GBIF1:1,2014-12-06T01:00:00Z,25.3780,-81.0290,1.5,18.76,1111122 
ENP,ioos.station.NOAA.NDBC:GBIF1:1,2014-12-06T02:00:00Z,25.3780,-81.0290,1.5,16.94,1111122 
ENP,ioos.station.NOAA.NDBC:GBIF1:1,2014-12-06T03:00:00Z,25.3780,-81.0290,1.5,16.6,1111122 
ENP,ioos.station.NOAA.NDBC:GBIF1:1,2014-12-06T06:00:00Z,25.3780,-81.0290,1.5,22.48,1111122 
ENP,ioos.station.NOAA.NDBC:GBIF1:1,2014-12-06T07:00:00Z,25.3780,-81.0290,1.5,24.44,1111122 
ENP,ioos.station.NOAA.NDBC:GBIF1:1,2014-12-06T09:00:00Z,25.3780,-81.0290,1.5,25.71,1111122 
ENP,ioos.station.NOAA.NDBC:GBIF1:1,2014-12-06T10:00:00Z,25.3780,-81.0290,1.5,23.32,1111122 
ENP,ioos.station.NOAA.NDBC:GBIF1:1,2014-12-06T11:00:00Z,25.3780,-81.0290,1.5,22.97,1111122 
ENP,ioos.station.NOAA.NDBC:GBIF1:1,2014-12-06T12:00:00Z,25.3780,-81.0290,1.5,21.51,1111122 
ENP,ioos.station.NOAA.NDBC:GBIF1:1,2014-12-06T13:00:00Z,25.3780,-81.0290,1.5,20.27,1111122 
ENP,ioos.station.NOAA.NDBC:GBIF1:1,2014-12-06T14:00:00Z,25.3780,-81.0290,1.5,18.76,1111122 
ENP,ioos.station.NOAA.NDBC:GBIF1:1,2014-12-06T15:00:00Z,25.3780,-81.0290,1.5,17.75,1111122 
ENP,ioos.station.NOAA.NDBC:GBIF1:1,2014-12-06T17:00:00Z,25.3780,-81.0290,1.5,13.94,1111122 
ENP,ioos.station.NOAA.NDBC:GBIF1:1,2014-12-06T18:00:00Z,25.3780,-81.0290,1.5,14.73,1111122 
ENP,ioos.station.NOAA.NDBC:GBIF1:1,2014-12-06T19:00:00Z,25.3780,-81.0290,1.5,18.42,1111122 
ENP,ioos.station.NOAA.NDBC:GBIF1:1,2014-12-06T20:00:00Z,25.3780,-81.0290,1.5,21.16,1111122 
ENP,ioos.station.NOAA.NDBC:GBIF1:1,2014-12-06T21:00:00Z,25.3780,-81.0290,1.5,23.25,1111122 
ENP,ioos.station.NOAA.NDBC:GBIF1:1,2014-12-06T22:00:00Z,25.3780,-81.0290,1.5,24.02,1111122 
ENP,ioos.station.NOAA.NDBC:GBIF1:1,2014-12-06T23:00:00Z,25.3780,-81.0290,1.5,22.55,1111122 
ENP,ioos.station.NOAA.NDBC:GBIF1:1,2014-12-07T00:00:00Z,25.3780,-81.0290,1.5,21.58,1111122 
ENP,ioos.station.NOAA.NDBC:GBIF1:1,2014-12-07T01:00:00Z,25.3780,-81.0290,1.5,19.79,1111122 
ENP,ioos.station.NOAA.NDBC:GBIF1:1,2014-12-07T02:00:00Z,25.3780,-81.0290,1.5,17.75,1111122 
ENP,ioos.station.NOAA.NDBC:GBIF1:1,2014-12-07T03:00:00Z,25.3780,-81.0290,1.5,16.94,1111122 
ENP,ioos.station.NOAA.NDBC:GBIF1:1,2014-12-07T04:00:00Z,25.3780,-81.0290,1.5,16.2,1111122 
ENP,ioos.station.NOAA.NDBC:GBIF1:1,2014-12-07T05:00:00Z,25.3780,-81.0290,1.5,17.27,1111122 
ENP,ioos.station.NOAA.NDBC:GBIF1:1,2014-12-07T06:00:00Z,25.3780,-81.0290,1.5,20.13,1111122 
ENP,ioos.station.NOAA.NDBC:GBIF1:1,2014-12-07T07:00:00Z,25.3780,-81.0290,1.5,22.62,1111122 
ENP,ioos.station.NOAA.NDBC:GBIF1:1,2014-12-07T09:00:00Z,25.3780,-81.0290,1.5,25.42,1111122 
ENP,ioos.station.NOAA.NDBC:GBIF1:1,2014-12-07T10:00:00Z,25.3780,-81.0290,1.5,24.79,1111122 
ENP,ioos.station.NOAA.NDBC:GBIF1:1,2014-12-07T11:00:00Z,25.3780,-81.0290,1.5,23.46,1111122 
ENP,ioos.station.NOAA.NDBC:GBIF1:1,2014-12-07T12:00:00Z,25.3780,-81.0290,1.5,21.86,1111122 
ENP,ioos.station.NOAA.NDBC:GBIF1:1,2014-12-07T13:00:00Z,25.3780,-81.0290,1.5,21.23,1111122 
ENP,ioos.station.NOAA.NDBC:GBIF1:1,2014-12-07T14:00:00Z,25.3780,-81.0290,1.5,19.65,1111122 
ENP,ioos.station.NOAA.NDBC:GBIF1:1,2014-12-07T15:00:00Z,25.3780,-81.0290,1.5,18.49,1111122 
ENP,ioos.station.NOAA.NDBC:GBIF1:1,2014-12-07T16:00:00Z,25.3780,-81.0290,1.5,16.8,1111122 
ENP,ioos.station.NOAA.NDBC:GBIF1:1,2014-12-07T17:00:00Z,25.3780,-81.0290,1.5,13.34,1111122 
ENP,ioos.station.NOAA.NDBC:GBIF1:1,2014-12-07T18:00:00Z,25.3780,-81.0290,1.5,13.21,1111122 
ENP,ioos.station.NOAA.NDBC:GBIF1:1,2014-12-07T19:00:00Z,25.3780,-81.0290,1.5,15.6,1111122 
ENP,ioos.station.NOAA.NDBC:GBIF1:1,2014-12-07T20:00:00Z,25.3780,-81.0290,1.5,19.31,1111122 
ENP,ioos.station.NOAA.NDBC:GBIF1:1,2014-12-07T21:00:00Z,25.3780,-81.0290,1.5,21.99,1111122 
ENP,ioos.station.NOAA.NDBC:GBIF1:1,2014-12-07T22:00:00Z,25.3780,-81.0290,1.5,23.88,1111122 
ENP,ioos.station.NOAA.NDBC:GBIF1:1,2014-12-07T23:00:00Z,25.3780,-81.0290,1.5,24.44,1111122 
ENP,ioos.station.NOAA.NDBC:GBIF1:1,2014-12-08T00:00:00Z,25.3780,-81.0290,1.5,22.34,1111122 
ENP,ioos.station.NOAA.NDBC:GBIF1:1,2014-12-08T01:00:00Z,25.3780,-81.0290,1.5,20.96,1111122 
ENP,ioos.station.NOAA.NDBC:GBIF1:1,2014-12-08T02:00:00Z,25.3780,-81.0290,1.5,19.65,1111122 
ENP,ioos.station.NOAA.NDBC:GBIF1:1,2014-12-08T03:00:00Z,25.3780,-81.0290,1.5,17.81,1111122 
ENP,ioos.station.NOAA.NDBC:GBIF1:1,2014-12-08T05:00:00Z,25.3780,-81.0290,1.5,16.33,1111122 
ENP,ioos.station.NOAA.NDBC:GBIF1:1,2014-12-08T06:00:00Z,25.3780,-81.0290,1.5,18.22,1111122 
ENP,ioos.station.NOAA.NDBC:GBIF1:1,2014-12-08T07:00:00Z,25.3780,-81.0290,1.5,20.89,1111122 
ENP,ioos.station.NOAA.NDBC:GBIF1:1,2014-12-08T08:00:00Z,25.3780,-81.0290,1.5,23.11,1111122 
ENP,ioos.station.NOAA.NDBC:GBIF1:1,2014-12-08T09:00:00Z,25.3780,-81.0290,1.5,24.65,1111122 
ENP,ioos.station.NOAA.NDBC:GBIF1:1,2014-12-08T10:00:00Z,25.3780,-81.0290,1.5,25.35,1111122 
ENP,ioos.station.NOAA.NDBC:GBIF1:1,2014-12-08T11:00:00Z,25.3780,-81.0290,1.5,23.46,1111122 
ENP,ioos.station.NOAA.NDBC:GBIF1:1,2014-12-08T13:00:00Z,25.3780,-81.0290,1.5,21.3,1111122 
ENP,ioos.station.NOAA.NDBC:GBIF1:1,2014-12-08T15:00:00Z,25.3780,-81.0290,1.5,18.56,1111122 
ENP,ioos.station.NOAA.NDBC:GBIF1:1,2014-12-08T17:00:00Z,25.3780,-81.0290,1.5,13.08,1111122 
ENP,ioos.station.NOAA.NDBC:GBIF1:1,2014-12-08T18:00:00Z,25.3780,-81.0290,1.5,11.65,1111122 
ENP,ioos.station.NOAA.NDBC:GBIF1:1,2014-12-08T19:00:00Z,25.3780,-81.0290,1.5,12.23,1111122 
ENP,ioos.station.NOAA.NDBC:GBIF1:1,2014-12-08T20:00:00Z,25.3780,-81.0290,1.5,15.93,1111122 
ENP,ioos.station.NOAA.NDBC:GBIF1:1,2014-12-08T21:00:00Z,25.3780,-81.0290,1.5,19.45,1111122 
ENP,ioos.station.NOAA.NDBC:GBIF1:1,2014-12-08T22:00:00Z,25.3780,-81.0290,1.5,22.2,1111122 
ENP,ioos.station.NOAA.NDBC:GBIF1:1,2014-12-09T00:00:00Z,25.3780,-81.0290,1.5,23.53,1111122 
ENP,ioos.station.NOAA.NDBC:GBIF1:1,2014-12-09T01:00:00Z,25.3780,-81.0290,1.5,21.65,1111122 
ENP,ioos.station.NOAA.NDBC:GBIF1:1,2014-12-09T02:00:00Z,25.3780,-81.0290,1.5,19.31,1111122 
ENP,ioos.station.NOAA.NDBC:GBIF1:1,2014-12-09T03:00:00Z,25.3780,-81.0290,1.5,17.54,1111122 
ENP,ioos.station.NOAA.NDBC:GBIF1:1,2014-12-09T04:00:00Z,25.3780,-81.0290,1.5,16.4,1111122 
ENP,ioos.station.NOAA.NDBC:GBIF1:1,2014-12-09T05:00:00Z,25.3780,-81.0290,1.5,15.13,1111122 
ENP,ioos.station.NOAA.NDBC:GBIF1:1,2014-12-09T06:00:00Z,25.3780,-81.0290,1.5,16.0,1111122 
ENP,ioos.station.NOAA.NDBC:GBIF1:1,2014-12-09T07:00:00Z,25.3780,-81.0290,1.5,18.76,1111122 
ENP,ioos.station.NOAA.NDBC:GBIF1:1,2014-12-09T08:00:00Z,25.3780,-81.0290,1.5,21.58,1111122 
ENP,ioos.station.NOAA.NDBC:GBIF1:1,2014-12-09T09:00:00Z,25.3780,-81.0290,1.5,23.74,1111122 
ENP,ioos.station.NOAA.NDBC:GBIF1:1,2014-12-09T10:00:00Z,25.3780,-81.0290,1.5,25.21,1111122 
ENP,ioos.station.NOAA.NDBC:GBIF1:1,2014-12-09T11:00:00Z,25.3780,-81.0290,1.5,25.49,1111122 
ENP,ioos.station.NOAA.NDBC:GBIF1:1,2014-12-09T12:00:00Z,25.3780,-81.0290,1.5,23.32,1111122 
ENP,ioos.station.NOAA.NDBC:GBIF1:1,2014-12-09T13:00:00Z,25.3780,-81.0290,1.5,22.13,1111122 
ENP,ioos.station.NOAA.NDBC:GBIF1:1,2014-12-09T14:00:00Z,25.3780,-81.0290,1.5,21.03,1111122 
ENP,ioos.station.NOAA.NDBC:GBIF1:1,2014-12-09T15:00:00Z,25.3780,-81.0290,1.5,19.58,1111122 
ENP,ioos.station.NOAA.NDBC:GBIF1:1,2014-12-09T16:00:00Z,25.3780,-81.0290,1.5,18.36,1111122 
ENP,ioos.station.NOAA.NDBC:GBIF1:1,2014-12-09T17:00:00Z,25.3780,-81.0290,1.5,17.0,1111122 
ENP,ioos.station.NOAA.NDBC:GBIF1:1,2014-12-09T18:00:00Z,25.3780,-81.0290,1.5,14.0,1111122 
ENP,ioos.station.NOAA.NDBC:GBIF1:1,2014-12-09T19:00:00Z,25.3780,-81.0290,1.5,12.69,1111122 
ENP,ioos.station.NOAA.NDBC:GBIF1:1,2014-12-09T20:00:00Z,25.3780,-81.0290,1.5,13.47,1111122 
ENP,ioos.station.NOAA.NDBC:GBIF1:1,2014-12-09T21:00:00Z,25.3780,-81.0290,1.5,17.21,1111122 
ENP,ioos.station.NOAA.NDBC:GBIF1:1,2014-12-09T22:00:00Z,25.3780,-81.0290,1.5,20.34,1111122 
ENP,ioos.station.NOAA.NDBC:GBIF1:1,2014-12-09T23:00:00Z,25.3780,-81.0290,1.5,22.55,1111122 
ENP,ioos.station.NOAA.NDBC:GBIF1:1,2014-12-10T00:00:00Z,25.3780,-81.0290,1.5,23.53,1111122 
ENP,ioos.station.NOAA.NDBC:GBIF1:1,2014-12-10T01:00:00Z,25.3780,-81.0290,1.5,21.72,1111122 
ENP,ioos.station.NOAA.NDBC:GBIF1:1,2014-12-10T03:00:00Z,25.3780,-81.0290,1.5,18.36,1111122 
ENP,ioos.station.NOAA.NDBC:GBIF1:1,2014-12-10T04:00:00Z,25.3780,-81.0290,1.5,16.67,1111122 
ENP,ioos.station.NOAA.NDBC:GBIF1:1,2014-12-10T05:00:00Z,25.3780,-81.0290,1.5,16.0,1111122 
ENP,ioos.station.NOAA.NDBC:GBIF1:1,2014-12-10T06:00:00Z,25.3780,-81.0290,1.5,13.34,1111122 
ENP,ioos.station.NOAA.NDBC:GBIF1:1,2014-12-10T07:00:00Z,25.3780,-81.0290,1.5,14.07,1111122 
ENP,ioos.station.NOAA.NDBC:GBIF1:1,2014-12-10T08:00:00Z,25.3780,-81.0290,1.5,16.6,1111122 
ENP,ioos.station.NOAA.NDBC:GBIF1:1,2014-12-10T09:00:00Z,25.3780,-81.0290,1.5,19.45,1111122 
ENP,ioos.station.NOAA.NDBC:GBIF1:1,2014-12-10T10:00:00Z,25.3780,-81.0290,1.5,21.79,1111122 
ENP,ioos.station.NOAA.NDBC:GBIF1:1,2014-12-10T11:00:00Z,25.3780,-81.0290,1.5,22.83,1111122 
ENP,ioos.station.NOAA.NDBC:GBIF1:1,2014-12-10T12:00:00Z,25.3780,-81.0290,1.5,20.89,1111122 
ENP,ioos.station.NOAA.NDBC:GBIF1:1,2014-12-10T13:00:00Z,25.3780,-81.0290,1.5,18.56,1111122 
ENP,ioos.station.NOAA.NDBC:GBIF1:1,2014-12-10T14:00:00Z,25.3780,-81.0290,1.5,16.4,1111122 
ENP,ioos.station.NOAA.NDBC:GBIF1:1,2014-12-10T15:00:00Z,25.3780,-81.0290,1.5,15.06,1111122 
ENP,ioos.station.NOAA.NDBC:GBIF1:1,2014-12-10T16:00:00Z,25.3780,-81.0290,1.5,12.43,1111122 
ENP,ioos.station.NOAA.NDBC:GBIF1:1,2014-12-10T17:00:00Z,25.3780,-81.0290,1.5,9.72,1111122 
ENP,ioos.station.NOAA.NDBC:GBIF1:1,2014-12-10T18:00:00Z,25.3780,-81.0290,1.5,8.17,1111122 
ENP,ioos.station.NOAA.NDBC:GBIF1:1,2014-12-10T19:00:00Z,25.3780,-81.0290,1.5,7.77,1111122 
ENP,ioos.station.NOAA.NDBC:GBIF1:1,2014-12-10T21:00:00Z,25.3780,-81.0290,1.5,11.58,1111122 
ENP,ioos.station.NOAA.NDBC:GBIF1:1,2014-12-10T22:00:00Z,25.3780,-81.0290,1.5,14.13,1111122 
ENP,ioos.station.NOAA.NDBC:GBIF1:1,2014-12-10T23:00:00Z,25.3780,-81.0290,1.5,18.22,1111122 
ENP,ioos.station.NOAA.NDBC:GBIF1:1,2014-12-11T00:00:00Z,25.3780,-81.0290,1.5,20.75,1111122 
ENP,ioos.station.NOAA.NDBC:GBIF1:1,2014-12-11T01:00:00Z,25.3780,-81.0290,1.5,21.37,1111122 
ENP,ioos.station.NOAA.NDBC:GBIF1:1,2014-12-11T02:00:00Z,25.3780,-81.0290,1.5,18.7,1111122 
ENP,ioos.station.NOAA.NDBC:GBIF1:1,2014-12-11T03:00:00Z,25.3780,-81.0290,1.5,15.4,1111122 
ENP,ioos.station.NOAA.NDBC:GBIF1:1,2014-12-11T04:00:00Z,25.3780,-81.0290,1.5,13.67,1111122 
ENP,ioos.station.NOAA.NDBC:GBIF1:1,2014-12-11T05:00:00Z,25.3780,-81.0290,1.5,13.02,1111122 
ENP,ioos.station.NOAA.NDBC:GBIF1:1,2014-12-11T06:00:00Z,25.3780,-81.0290,1.5,11.58,1111122 
ENP,ioos.station.NOAA.NDBC:GBIF1:1,2014-12-11T07:00:00Z,25.3780,-81.0290,1.5,12.04,1111122 
ENP,ioos.station.NOAA.NDBC:GBIF1:1,2014-12-11T09:00:00Z,25.3780,-81.0290,1.5,17.54,1111122 
ENP,ioos.station.NOAA.NDBC:GBIF1:1,2014-12-11T10:00:00Z,25.3780,-81.0290,1.5,20.41,1111122 
ENP,ioos.station.NOAA.NDBC:GBIF1:1,2014-12-11T11:00:00Z,25.3780,-81.0290,1.5,22.69,1111122 
ENP,ioos.station.NOAA.NDBC:GBIF1:1,2014-12-11T12:00:00Z,25.3780,-81.0290,1.5,23.32,1111122 
ENP,ioos.station.NOAA.NDBC:GBIF1:1,2014-12-11T13:00:00Z,25.3780,-81.0290,1.5,20.96,1111122 
ENP,ioos.station.NOAA.NDBC:GBIF1:1,2014-12-11T14:00:00Z,25.3780,-81.0290,1.5,18.76,1111122 
ENP,ioos.station.NOAA.NDBC:GBIF1:1,2014-12-11T15:00:00Z,25.3780,-81.0290,1.5,17.14,1111122 
ENP,ioos.station.NOAA.NDBC:GBIF1:1,2014-12-11T16:00:00Z,25.3780,-81.0290,1.5,14.86,1111122 
ENP,ioos.station.NOAA.NDBC:GBIF1:1,2014-12-11T17:00:00Z,25.3780,-81.0290,1.5,13.61,1111122 
ENP,ioos.station.NOAA.NDBC:GBIF1:1,2014-12-11T18:00:00Z,25.3780,-81.0290,1.5,9.97,1111122 
ENP,ioos.station.NOAA.NDBC:GBIF1:1,2014-12-11T19:00:00Z,25.3780,-81.0290,1.5,8.39,1111122 
ENP,ioos.station.NOAA.NDBC:GBIF1:1,2014-12-11T21:00:00Z,25.3780,-81.0290,1.5,11.26,1111122 
ENP,ioos.station.NOAA.NDBC:GBIF1:1,2014-12-11T22:00:00Z,25.3780,-81.0290,1.5,14.4,1111122 
ENP,ioos.station.NOAA.NDBC:GBIF1:1,2014-12-11T23:00:00Z,25.3780,-81.0290,1.5,18.09,1111122 
ENP,ioos.station.NOAA.NDBC:GBIF1:1,2014-12-12T00:00:00Z,25.3780,-81.0290,1.5,21.37,1111122 
ENP,ioos.station.NOAA.NDBC:GBIF1:1,2014-12-12T01:00:00Z,25.3780,-81.0290,1.5,22.69,1111122 
ENP,ioos.station.NOAA.NDBC:GBIF1:1,2014-12-12T02:00:00Z,25.3780,-81.0290,1.5,22.34,1111122 
ENP,ioos.station.NOAA.NDBC:GBIF1:1,2014-12-12T03:00:00Z,25.3780,-81.0290,1.5,19.99,1111122 
ENP,ioos.station.NOAA.NDBC:GBIF1:1,2014-12-12T04:00:00Z,25.3780,-81.0290,1.5,17.21,1111122 
ENP,ioos.station.NOAA.NDBC:GBIF1:1,2014-12-12T05:00:00Z,25.3780,-81.0290,1.5,15.46,1111122 
ENP,ioos.station.NOAA.NDBC:GBIF1:1,2014-12-12T06:00:00Z,25.3780,-81.0290,1.5,14.07,1111122 
ENP,ioos.station.NOAA.NDBC:GBIF1:1,2014-12-12T07:00:00Z,25.3780,-81.0290,1.5,13.61,1111122 
ENP,ioos.station.NOAA.NDBC:GBIF1:1,2014-12-12T08:00:00Z,25.3780,-81.0290,1.5,15.0,1111122 
ENP,ioos.station.NOAA.NDBC:GBIF1:1,2014-12-12T09:00:00Z,25.3780,-81.0290,1.5,17.21,1111122 
ENP,ioos.station.NOAA.NDBC:GBIF1:1,2014-12-12T10:00:00Z,25.3780,-81.0290,1.5,19.65,1111122 
ENP,ioos.station.NOAA.NDBC:GBIF1:1,2014-12-12T11:00:00Z,25.3780,-81.0290,1.5,21.79,1111122 
ENP,ioos.station.NOAA.NDBC:GBIF1:1,2014-12-12T12:00:00Z,25.3780,-81.0290,1.5,23.11,1111122 
ENP,ioos.station.NOAA.NDBC:GBIF1:1,2014-12-12T13:00:00Z,25.3780,-81.0290,1.5,23.39,1111122 
ENP,ioos.station.NOAA.NDBC:GBIF1:1,2014-12-12T14:00:00Z,25.3780,-81.0290,1.5,21.3,1111122 
ENP,ioos.station.NOAA.NDBC:GBIF1:1,2014-12-12T15:00:00Z,25.3780,-81.0290,1.5,19.31,1111122 
ENP,ioos.station.NOAA.NDBC:GBIF1:1,2014-12-12T16:00:00Z,25.3780,-81.0290,1.5,17.75,1111122 
ENP,ioos.station.NOAA.NDBC:GBIF1:1,2014-12-12T17:00:00Z,25.3780,-81.0290,1.5,15.53,1111122 
ENP,ioos.station.NOAA.NDBC:GBIF1:1,2014-12-12T18:00:00Z,25.3780,-81.0290,1.5,14.2,1111122 
ENP,ioos.station.NOAA.NDBC:GBIF1:1,2014-12-12T19:00:00Z,25.3780,-81.0290,1.5,10.61,1111122 
ENP,ioos.station.NOAA.NDBC:GBIF1:1,2014-12-12T20:00:00Z,25.3780,-81.0290,1.5,9.72,1111122 
ENP,ioos.station.NOAA.NDBC:GBIF1:1,2014-12-12T21:00:00Z,25.3780,-81.0290,1.5,10.29,1111122 
ENP,ioos.station.NOAA.NDBC:GBIF1:1,2014-12-12T22:00:00Z,25.3780,-81.0290,1.5,13.94,1111122 
ENP,ioos.station.NOAA.NDBC:GBIF1:1,2014-12-12T23:00:00Z,25.3780,-81.0290,1.5,16.73,1111122 